THORAD AGENA D DEB

Satellite information

Favourite Embed

Satellite Type and Status

DEBRISIN ORBIT

Key statistics

Satellite THORAD AGENA D DEB at a glance.

Uptime

20118

Days in orbit

Revolutions

≈ 13.7

Per day

Orbit

SSO

Sun Synchronous Orbit

Inclination

100.0

Latest

Satellite identification and parameters

Extended collection of information and parameters for THORAD AGENA D DEB.

Object identification

Identified? True

Debris? True

Object name: THORAD AGENA D DEB

International designator: 1970-025GA

Object number (NORAD): 4934

Object ID (CCSDS): 4934

Country: UNITED STATES OF AMERICA (US)

Current information (Y/N): Y

RCS size: SMALL

Orbital parameters

Period: 104.739 minutes

Inclination: 99.9942 deg

SMA: 7360.339 km

Apoapsis: 987.716 km

Periapsis: 976.693 km

RAAN: 227.5935 deg

Eccentricy: 0.0007488

Argument of periapsis: 145.4604 deg

Mean anomaly: 244.5631 deg

Mean motion: 13.74852205 rev/day

Mean motion (dot): 0.00000822 rev/day2

B* drag term: 0.00091389 1/REarth

Two-line elements (TLE)

Creation date: May 7, 2025, 3:14 a.m.

Reference frame: TEME

Reference center: EARTH

Epoch: May 6, 2025, 5:22 a.m. UTC

TLE line 0: 0 THORAD AGENA D DEB

TLE line 1: 1 04934U 70025GA 25126.22399822 .00000822 00000-0 91389-3 0 9992

TLE line 2: 2 04934 99.9942 227.5935 0007488 145.4604 244.5631 13.74852205740449

Live tracking on map

Real-time ground track for satellite THORAD AGENA D DEB.

In-orbit conjunctions

A list of the most updated potential collisions computed for object THORAD AGENA D DEB.

Target Orbit TCA Probability of collision Miss distance Type
SL-8 R/B LEO 2025-04-21 02:26:57 0.0003017739 537.0 (m) ROCKET BODY
COSMOS 422 LEO 2024-08-06 12:15:19 0.03005916 10.0 (m) PAYLOAD

Associated space launch

Meteorological research and development satellite

THORAD AGENA D DEB was lifted into orbit during the mission ‘Thorad SLV-2G Agena D | Nimbus 4’, on board a Thorad SLV-2G Agena D space rocket.

The launch took place on April 8, 1970, 8:17 a.m. from Space Launch Complex 2E.

For more information about the launch, click the button.

Launch to space Thorad SLV-2G Agena D | Nimbus 4
Thorad SLV-2G Agena D | Nimbus 4

Agency: N/A

Status: Launch Successful

Launch date: April 8, 1970, 8:17 a.m. UTC

Rocket: Thorad SLV-2G Agena D

Launch pad: Space Launch Complex 2E

Location: Vandenberg SFB, CA, USA

...

Latest news about this satellite

There are no fresh news available about this satellite. Check back as we update our databases every day.


Newsletter sign-up

Weekly statistics, charts and insights to help you stay on top of the space industry.